Weather in Derevyanka

Russia / Republic of Karelia     61°33′50″N   34°26′48″E
temp.,
°C
wind,
m/s
gust,
m/s
humid.,
%
clouds,
%
prec.,
mm/h
press.,
hPa
HPBL,
m
6 august, fri
fri600:00+12ene2276100 0.0 101741
03:00+12nne228178 0.1 101742
06:00+12e258288 0.1 1017155
09:00+15ese246989 0.1 1017475
12:00+16ene3769100 0.4 1018657
15:00+17e4658100 0.4 1017973
18:00+16e465896 0.0 1017840
21:00+11ene238941 0.0 101773
7 august, sat
sat700:00+13e49815 0.0 1017583
03:00+12e499193 0.0 1017532
06:00+14e597999 0.0 1016788
09:00+16e61076100 0.0 1016780
12:00+18e697097 0.0 1015995
15:00+17e61180100 0.0 1015752
18:00+17e61172100 0.0 1014930
21:00+15e61396100 1.6 1014857
8 august, sun
sun800:00+14e71498100 4.3 1013991
03:00+14e51298100 6.2 1012825
06:00+14e51098100 0.4 1012655
09:00+14e41098100 0.9 1012566
12:00+15ese3899100 1.7 1012498
15:00+16ese2498100 1.9 1013329
18:00+17ene229574 0.1 1013242
21:00+15ne229978 0.3 101489
9 august, mon
mon900:00+14nne119972 0.0 101537
03:00+14n129779 0.0 101645
06:00+15ne129797 0.0 1016136
09:00+16ese129199 0.0 1016361
12:00+21ese236585 0.1 10161142
15:00+20ene347398 0.1 1016389
18:00+20ene3576100 0.0 1016164
21:00+17e278696 0.0 1016171
10 august, tue
tue1000:00+17ssw1283100 0.0 101553
03:00+15sw3897100 0.0 1016196
06:00+16ssw3897100 0.0 1017255
09:00+19wsw368026 0.0 1017475
12:00+22wsw34572 0.0 10181100
15:00+23sw1349100 0.0 10171705
18:00+22s135899 0.0 1018434
21:00+17w117774 0.0 101811